Starlink 33688

operational
NORAD ID: 63483 Int'l Des: 2025-070 Owner: SPXS Country: US Constellation: starlink
LEOCIRCULAR

About Starlink 33688

Description loading...

Live Position

Loading 3D Globe...

Upcoming Passes

Altitude History

Altitude vs Time

uPlot chart will show altitude changes over time

Two-Line Element Set

1 63483U 25070Z 26063.06040416 .00030701 00000-0 11195-2 0 9996
2 63483 43.0005 291.7307 0001948 261.4923 98.5708 15.27608361 52111
Epoch: Mar 4, 2026 • Age: 16 hours

Current Status

Altitude 482.6 km
Velocity 7.63 km/s
Sub-Earth Point 1.22°N, 106.41°W
Launch Date Apr 6, 2025
Age 0.9 years
Type internet

Technical Details

Classification Payload
Mass 575.00 kg
Dry Mass 530.00 kg
Total Mass 575.00 kg
Length 0.30 m
Diameter 4.10 m
Span 29.00 m
Shape Box + pan
Manufacturer SPXS
Bus Type Starlink V2MO
Phase Status In Orbit
Owner/State SPXS/US

Large Constellations

Loading constellations...